Flag for Germany Weather past 2 weeks in Lingen (Ems), Lower Saxony, Germany

Now
64 °F

Mild.


Feels Like: 64 °F
Forecast: 61 / 71 °F
Wind: 2 mph from Northeast

Location: Meppen

Current Time: Jul 25, 2014 at 1:54:47 AM

Latest Report: Jul 25, 2014 at 1:00 AM


Visibility: 8 mi

Pressure: 30.05 "Hg

Humidity: 73%

Dew point: 55 °F

Location of Lingen (Ems)Location

Historic Weather in Lingen (Ems) — Graph

°F

Lingen (Ems) temperature yesterday

Maximum temperature yesterday: 76 °F (at 2:00 PM)
Minimum temperature yesterday: 58 °F (at 6:00 AM)
Average temperature yesterday: 69 °F

Past Weeks' High & Low Weather Summary

 TemperatureHumidityPressure
High93 °F (Jul 19, 4:00 PM)95% (Jul 10, 6:00 AM)30.20 "Hg (Jul 10, 6:00 AM)
Low53 °F (Jul 16, 6:00 AM)22% (Jul 19, 3:00 PM)29.74 "Hg (Jul 10, 12:00 AM)
Average70 °F68%29.99 "Hg
* Reported Midnight between Jul 9 and Jul 10 — Midnight between Jul 24 and Jul 25, Lingen (Ems), Weather by CustomWeather, © 2014

Note: Actual official high and low records may vary slightly from our data, if they occured in-between our weather recording intervals... More about our weather records

Advertising

Lingen (Ems) weather history for previous 24 hours

 ConditionsComfort  
Time TempWeatherWind HumidityBarometerVisibility
12:00 AM
Jul 25
65 °FMild.2 mph67%30.05 "Hg8 mi
10:00 PM
Jul 24
69 °FMild.2 mph67%30.05 "Hg7 mi
9:00 PM71 °FMild.2 mph61%30.02 "Hg7 mi
8:00 PM73 °FMild.2 mph52%30.02 "Hg7 mi
7:00 PM74 °FMild.5 mph46%30.03 "Hg7 mi
6:00 PM76 °FMild.6 mph45%30.02 "Hg7 mi
4:00 PM75 °FPartly sunny.5 mph57%30.03 "Hg25 mi
3:00 PM71 °FSprinkles. Overcast.2 mph67%30.05 "Hg9 mi
2:00 PM76 °FPartly sunny.5 mph46%30.04 "Hg25 mi
1:00 PM75 °FPartly sunny.3 mph48%30.06 "Hg25 mi
12:00 PM75 °FPassing clouds.5 mph54%30.06 "Hg25 mi
10:00 AM70 °FPassing clouds.3 mph66%30.06 "Hg22 mi
9:00 AM68 °FPassing clouds.5 mph69%30.06 "Hg22 mi
8:00 AM64 °FScattered clouds.5 mph76%30.07 "Hg19 mi
7:00 AM60 °FPartly sunny.2 mph82%30.06 "Hg19 mi
6:00 AM58 °FPassing clouds.3 mph85%30.06 "Hg7 mi
4:00 AM60 °FCool.2 mph77%30.07 "Hg7 mi
3:00 AM62 °FCool.1 mph71%30.08 "Hg8 mi
2:00 AM65 °FMild.2 mph65%30.08 "Hg8 mi
1:00 AM67 °FMild.3 mph62%30.08 "Hg7 mi
Weather by CustomWeather, © 2014

See weather overviewHow to use our weather pages